When you browse on this site, cookies collect data to enhance your experience and personalize the content and advertising you see.
Visit our Privacy Policy to learn more. By continuing to use the site, you agree to this use of cookies and data.
  • In Austria
  • List of Countries
  • For 7 days
  • Water Temperature
  • Weather Map
  • News
  • Weather Widgets
  • user-avatar
    Login

    Hourly Weather Sucre

    Today, 23 September, Monday

    Time Temperature Precipitation Wind Pressure Humidity
    00:00 +20°C° 0.2 mm 1 mps 656 mmHg 86%
    01:00 +19°C° 0 mm 1 mps 656 mmHg 85%
    02:00 +19°C° 0.1 mm 1 mps 656 mmHg 85%
    03:00 +19°C° 0.1 mm 1 mps 655 mmHg 85%
    04:00 +19°C° 0.1 mm 1 mps 655 mmHg 85%
    05:00 +19°C° 0 mm 1 mps 656 mmHg 83%
    06:00 +20°C° 0 mm 1 mps 656 mmHg 82%
    07:00 +20°C° 0 mm 1 mps 657 mmHg 80%
    08:00 +23°C° 0 mm 1 mps 657 mmHg 73%
    09:00 +25°C° 0 mm 1 mps 658 mmHg 65%
    10:00 +27°C° 0 mm 1 mps 659 mmHg 58%
    11:00 +28°C° 0.1 mm 1 mps 658 mmHg 54%
    12:00 +29°C° 0.1 mm 1 mps 658 mmHg 49%
    13:00 +30°C° 0.1 mm 1 mps 657 mmHg 45%
    14:00 +30°C° 0.2 mm 1 mps 657 mmHg 49%
    15:00 +29°C° 0.2 mm 2 mps 656 mmHg 53%
    16:00 +28°C° 0.2 mm 2 mps 656 mmHg 56%
    17:00 +26°C° 0.5 mm 2 mps 655 mmHg 66%
    18:00 +24°C° 0.5 mm 1 mps 655 mmHg 75%
    19:00 +22°C° 0.5 mm 1 mps 655 mmHg 84%
    20:00 +21°C° 0.1 mm 1 mps 655 mmHg 84%
    21:00 +21°C° 0.1 mm 1 mps 656 mmHg 83%
    22:00 +20°C° 0.1 mm 1 mps 656 mmHg 82%
    23:00 +20°C° 0 mm 1 mps 656 mmHg 83%

    Tomorrow, 24 September, Tuesday

    Time Temperature Precipitation Wind Pressure Humidity
    00:00 +20°C° 0 mm 1 mps 655 mmHg 83%
    01:00 +20°C° 0 mm 1 mps 655 mmHg 83%
    02:00 +20°C° 0 mm 1 mps 655 mmHg 83%
    03:00 +20°C° 0 mm 1 mps 655 mmHg 83%
    04:00 +20°C° 0 mm 1 mps 655 mmHg 83%
    05:00 +20°C° 0 mm 1 mps 655 mmHg 83%
    06:00 +20°C° 0 mm 1 mps 656 mmHg 82%
    07:00 +19°C° 0 mm 0 mps 656 mmHg 82%
    08:00 +22°C° 0.2 mm 1 mps 657 mmHg 77%
    09:00 +24°C° 0.2 mm 1 mps 658 mmHg 72%
    10:00 +25°C° 0.2 mm 1 mps 658 mmHg 68%
    11:00 +26°C° 0.2 mm 1 mps 658 mmHg 64%
    12:00 +27°C° 0.2 mm 1 mps 657 mmHg 60%
    13:00 +28°C° 0.2 mm 1 mps 657 mmHg 56%
    14:00 +28°C° 0.1 mm 1 mps 656 mmHg 56%
    15:00 +28°C° 0.1 mm 1 mps 656 mmHg 56%
    16:00 +28°C° 0.1 mm 1 mps 656 mmHg 57%
    17:00 +26°C° 0.6 mm 1 mps 656 mmHg 66%
    18:00 +24°C° 0.6 mm 1 mps 655 mmHg 76%
    19:00 +22°C° 0.6 mm 1 mps 655 mmHg 86%
    20:00 +21°C° 0.5 mm 1 mps 656 mmHg 86%
    21:00 +21°C° 0.5 mm 1 mps 656 mmHg 86%
    22:00 +21°C° 0.5 mm 1 mps 656 mmHg 86%
    23:00 +20°C° 0.4 mm 1 mps 656 mmHg 87%

    Day after tomorrow, 25 September, Wednesday

    Time Temperature Precipitation Wind Pressure Humidity
    00:00 +20°C° 0.4 mm 1 mps 656 mmHg 87%
    01:00 +20°C° 0.4 mm 1 mps 655 mmHg 88%
    02:00 +20°C° 0.2 mm 1 mps 655 mmHg 88%
    03:00 +19°C° 0.2 mm 1 mps 655 mmHg 87%
    04:00 +19°C° 0.2 mm 1 mps 655 mmHg 87%
    05:00 +20°C° 0.1 mm 1 mps 656 mmHg 86%
    06:00 +18°C° 0.1 mm 0 mps 656 mmHg 84%
    07:00 +19°C° 0.1 mm 0 mps 657 mmHg 83%
    08:00 +21°C° 0.1 mm 0 mps 657 mmHg 78%
    09:00 +25°C° 0.1 mm 1 mps 658 mmHg 72%
    10:00 +27°C° 0.1 mm 1 mps 659 mmHg 67%
    11:00 +28°C° 0.6 mm 1 mps 658 mmHg 64%
    12:00 +28°C° 0.6 mm 1 mps 658 mmHg 61%
    13:00 +29°C° 0.6 mm 1 mps 657 mmHg 59%
    14:00 +28°C° 0.9 mm 1 mps 657 mmHg 63%
    15:00 +28°C° 0.9 mm 1 mps 656 mmHg 67%
    16:00 +27°C° 0.9 mm 1 mps 655 mmHg 71%
    17:00 +25°C° 1 mm 1 mps 655 mmHg 77%
    18:00 +24°C° 1 mm 1 mps 655 mmHg 83%
    19:00 +22°C° 1 mm 1 mps 655 mmHg 89%
    20:00 +22°C° 0.2 mm 1 mps 656 mmHg 88%
    21:00 +21°C° 0.2 mm 1 mps 656 mmHg 88%
    22:00 +21°C° 0.2 mm 1 mps 657 mmHg 88%
    23:00 +21°C° 0 mm 1 mps 656 mmHg 88%

    26 September, Thursday

    Time Temperature Precipitation Wind Pressure Humidity
    00:00 +20°C° 0 mm 1 mps 656 mmHg 88%
    01:00 +20°C° 0 mm 1 mps 655 mmHg 89%
    02:00 +20°C° 0 mm 1 mps 655 mmHg 88%
    03:00 +20°C° 0 mm 1 mps 655 mmHg 87%
    04:00 +20°C° 0 mm 1 mps 655 mmHg 87%
    05:00 +20°C° 0 mm 1 mps 655 mmHg 86%
    06:00 +21°C° 0 mm 1 mps 656 mmHg 84%
    07:00 +21°C° 0 mm 1 mps 656 mmHg 83%
    08:00 +23°C° 0 mm 1 mps 657 mmHg 77%
    09:00 +25°C° 0 mm 1 mps 658 mmHg 70%
    10:00 +27°C° 0 mm 1 mps 658 mmHg 64%
    11:00 +28°C° 0.1 mm 1 mps 658 mmHg 59%
    12:00 +29°C° 0.1 mm 1 mps 657 mmHg 54%
    13:00 +30°C° 0.1 mm 1 mps 657 mmHg 49%
    14:00 +29°C° 0.3 mm 1 mps 657 mmHg 53%
    15:00 +29°C° 0.3 mm 2 mps 656 mmHg 56%
    16:00 +28°C° 0.3 mm 2 mps 655 mmHg 60%
    17:00 +26°C° 1 mm 2 mps 655 mmHg 68%
    18:00 +24°C° 1 mm 2 mps 655 mmHg 76%
    19:00 +22°C° 1 mm 1 mps 655 mmHg 85%
    20:00 +21°C° 0.4 mm 1 mps 655 mmHg 85%
    21:00 +21°C° 0.4 mm 1 mps 655 mmHg 85%
    22:00 +20°C° 0.4 mm 1 mps 656 mmHg 85%
    23:00 +20°C° 0.1 mm 1 mps 655 mmHg 85%

    27 September, Friday

    Time Temperature Precipitation Wind Pressure Humidity
    00:00 +19°C° 0.1 mm 1 mps 655 mmHg 84%
    01:00 +19°C° 0.1 mm 1 mps 655 mmHg 84%
    02:00 +19°C° 0 mm 1 mps 655 mmHg 84%
    03:00 +19°C° 0 mm 1 mps 654 mmHg 84%
    04:00 +19°C° 0 mm 1 mps 654 mmHg 83%
    05:00 +20°C° 0 mm 1 mps 655 mmHg 82%
    06:00 +20°C° 0 mm 1 mps 655 mmHg 80%
    07:00 +21°C° 0 mm 1 mps 656 mmHg 79%
    08:00 +23°C° 0 mm 1 mps 657 mmHg 72%
    09:00 +25°C° 0 mm 1 mps 658 mmHg 65%
    10:00 +28°C° 0 mm 1 mps 658 mmHg 58%
    11:00 +29°C° 0.1 mm 1 mps 658 mmHg 54%
    12:00 +30°C° 0.1 mm 1 mps 657 mmHg 51%
    13:00 +31°C° 0.1 mm 1 mps 657 mmHg 47%
    14:00 +30°C° 0.5 mm 1 mps 656 mmHg 53%
    15:00 +28°C° 0.5 mm 2 mps 655 mmHg 59%
    16:00 +27°C° 0.5 mm 2 mps 655 mmHg 64%
    17:00 +25°C° 1.2 mm 2 mps 654 mmHg 73%
    18:00 +23°C° 1.2 mm 1 mps 654 mmHg 82%
    19:00 +21°C° 1.2 mm 1 mps 654 mmHg 90%
    20:00 +21°C° 0.4 mm 1 mps 655 mmHg 90%
    21:00 +20°C° 0.4 mm 1 mps 655 mmHg 90%
    22:00 +20°C° 0.4 mm 1 mps 655 mmHg 89%
    23:00 +20°C° 0.1 mm 1 mps 655 mmHg 89%

    28 September, Saturday

    Time Temperature Precipitation Wind Pressure Humidity
    00:00 +19°C° 0.1 mm 1 mps 655 mmHg 89%
    01:00 +19°C° 0.1 mm 1 mps 655 mmHg 89%
    02:00 +19°C° 0.1 mm 1 mps 654 mmHg 89%
    03:00 +19°C° 0.1 mm 1 mps 654 mmHg 88%
    04:00 +19°C° 0.1 mm 1 mps 654 mmHg 88%
    05:00 +19°C° 0 mm 1 mps 654 mmHg 86%
    06:00 +18°C° 0 mm 0 mps 655 mmHg 84%
    07:00 +18°C° 0 mm 0 mps 656 mmHg 82%
    08:00 +23°C° 0 mm 1 mps 656 mmHg 75%
    09:00 +25°C° 0 mm 1 mps 657 mmHg 69%
    10:00 +27°C° 0 mm 1 mps 657 mmHg 63%
    11:00 +28°C° 0.3 mm 1 mps 657 mmHg 61%
    12:00 +29°C° 0.3 mm 1 mps 656 mmHg 59%
    13:00 +29°C° 0.3 mm 1 mps 656 mmHg 58%
    14:00 +28°C° 1.1 mm 1 mps 655 mmHg 63%
    15:00 +27°C° 1.1 mm 1 mps 655 mmHg 69%
    16:00 +26°C° 1.1 mm 1 mps 654 mmHg 74%
    17:00 +25°C° 1.8 mm 1 mps 654 mmHg 80%
    18:00 +23°C° 1.8 mm 1 mps 654 mmHg 86%
    19:00 +21°C° 1.8 mm 1 mps 654 mmHg 92%
    20:00 +21°C° 0.7 mm 1 mps 654 mmHg 92%
    21:00 +21°C° 0.7 mm 1 mps 655 mmHg 92%
    22:00 +21°C° 0.7 mm 1 mps 655 mmHg 92%
    23:00 +18°C° 0.4 mm 0 mps 655 mmHg 93%
    Show more